M I D A S
Marine Information and Data Acquisition System
Tripno 317 of the Zeeleeuw from 2002-04-11 06:35:16 to 2002-04-11 14:34:41
Back to CruiseResearch ActivitiesStationsMapUnderway DataData graphs

EquipmentUnitsComment
TimeDGPSUTC
LatitudeDGPSDM.mWGS84
LongitudeDGPSDM.mWGS84
TemperatureSBE03/SBE38deg celciusITS90
ConductivitySBE21S/mITS90
SalinitySBE21 Practical Salinity Units
ChlorophylAChelsea fluorimeterg/lCalibrated in Aceton
Missing or incorrect values are displayed as -999
Sea surface data collected by the RV Zeeleeuw from 2002-04-11 06:35:16 to 2002-04-11 14:34:41
                                                                                    Next 1000 lines
Time Latitude Longitude Temperature Conductivity Salinity ChlorophylA
2002-04-11 06:35:22 51°13.689 2°55.892 16.954769 0.015952 0.08941  
2002-04-11 06:35:27 51°13.689 2°55.889 16.951598 0.015952 0.089415  
2002-04-11 06:35:32 51°13.689 2°55.885 16.934981 0.015952 0.089422  
2002-04-11 06:35:37 51°13.69 2°55.881 16.930329 0.015952 0.089428  
2002-04-11 06:35:42 51°13.69 2°55.876 16.930329 0.015952 0.089428  
2002-04-11 06:35:47 51°13.691 2°55.871 16.924027 0.015952 0.089432  
2002-04-11 06:35:52 51°13.691 2°55.866 16.922843 0.015952 0.089438  
2002-04-11 06:35:57 51°13.691 2°55.86 16.92961 0.015952 0.089442  
2002-04-11 06:36:02 51°13.692 2°55.854 16.929441 0.015952 0.089447  
2002-04-11 06:36:07 51°13.692 2°55.848 16.928511 0.015952 0.089451  
2002-04-11 06:36:12 51°13.692 2°55.841 16.928511 0.015952 0.089451  
2002-04-11 06:36:17 51°13.692 2°55.835 16.927242 0.015952 0.089458  
2002-04-11 06:36:22 51°13.693 2°55.828 16.924154 0.015952 0.089461  
2002-04-11 06:36:27 51°13.693 2°55.822 16.926692 0.015952 0.089465  
2002-04-11 06:36:32 51°13.693 2°55.816 16.92758 0.015952 0.089469  
2002-04-11 06:36:36 51°13.693 2°55.811 16.927834 0.015952 0.089474  
2002-04-11 06:36:40 51°13.693 2°55.806 16.927834 0.015952 0.089474  
2002-04-11 06:36:43 51°13.693 2°55.802 16.926861 0.015952 0.089479  
2002-04-11 06:36:48 51°13.694 2°55.796 16.92445 0.015952 0.089485  
2002-04-11 06:36:52 51°13.694 2°55.791 16.923351 0.015952 0.089487  
2002-04-11 06:36:58 51°13.694 2°55.784 16.924704 0.015952 0.089492  
2002-04-11 06:37:02 51°13.695 2°55.78 16.925931 0.015952 0.089496  
2002-04-11 06:37:08 51°13.695 2°55.774 16.925931 0.015952 0.089496  
2002-04-11 06:37:12 51°13.695 2°55.77 16.926565 0.015952 0.089499  
2002-04-11 06:37:18 51°13.695 2°55.765 16.924704 0.015952 0.089504  
2002-04-11 06:37:22 51°13.695 2°55.763 16.909561 0.015952 0.089505  
2002-04-11 06:37:28 51°13.696 2°55.762 16.855815 0.015952 0.089508  
2002-04-11 06:37:32 51°13.696 2°55.763 16.854206 0.015952 0.089508  
2002-04-11 06:37:37 51°13.698 2°55.764 16.854206 0.015952 0.089508  
2002-04-11 06:37:42 51°13.699 2°55.765 16.900381 0.015952 0.089509  
2002-04-11 06:37:48 51°13.7 2°55.766 16.932232 0.015952 0.089514  
2002-04-11 06:37:52 51°13.701 2°55.766 16.947497 0.015952 0.089519  
2002-04-11 06:37:57 51°13.702 2°55.767 16.947581 0.015952 0.089526  
2002-04-11 06:38:03 51°13.703 2°55.766 16.942719 0.015952 0.089532  
2002-04-11 06:38:08 51°13.703 2°55.766 16.942719 0.015952 0.089532  
2002-04-11 06:38:12 51°13.703 2°55.764 16.950076 0.015952 0.089539  
2002-04-11 06:38:18 51°13.702 2°55.763 16.946524 0.015952 0.089544  
2002-04-11 06:38:23 51°13.701 2°55.761 16.932359 0.015952 0.089546  
2002-04-11 06:38:28 51°13.7 2°55.759 16.940943 0.015952 0.089552  
2002-04-11 06:38:32 51°13.699 2°55.757 16.932148 0.015952 0.089553  
2002-04-11 06:38:38 51°13.697 2°55.755 16.932148 0.015952 0.089553  
2002-04-11 06:38:43 51°13.696 2°55.753 16.929822 0.015952 0.089557  
2002-04-11 06:38:48 51°13.695 2°55.751 16.938237 0.015952 0.089559  
2002-04-11 06:38:54 51°13.695 2°55.75 16.912819 0.015952 0.089562  
2002-04-11 06:38:58 51°13.695 2°55.749 16.895642 0.015952 0.089563  
2002-04-11 06:39:03 51°13.697 2°55.748 16.863223 0.015952 0.089557  
2002-04-11 06:39:09 51°13.7 2°55.747 16.863223 0.015952 0.089557  
2002-04-11 06:39:13 51°13.703 2°55.746 16.831721 0.015952 0.089559  
2002-04-11 06:39:17 51°13.706 2°55.745 16.861318 0.015952 0.089513  
2002-04-11 06:39:22 51°13.71 2°55.741 16.866991 0.015952 0.089504  
2002-04-11 06:39:27 51°13.715 2°55.738 16.887475 0.015952 0.089517  
2002-04-11 06:39:32 51°13.719 2°55.734 16.927749 0.015952 0.08953  
2002-04-11 06:39:38 51°13.725 2°55.73 16.927749 0.015952 0.08953  
2002-04-11 06:39:42 51°13.728 2°55.727 16.946567 0.015952 0.089544  
2002-04-11 06:39:48 51°13.733 2°55.721 16.962716 0.015952 0.089555  
2002-04-11 06:39:52 51°13.736 2°55.718 16.966013 0.015952 0.089563  
2002-04-11 06:39:57 51°13.741 2°55.714 16.953585 0.015952 0.08957  
2002-04-11 06:40:03 51°13.746 2°55.709 16.955572 0.015952 0.089573  
2002-04-11 06:40:08 51°13.752 2°55.705 16.955572 0.015952 0.089573  
2002-04-11 06:40:13 51°13.757 2°55.701 16.950287 0.015952 0.089577  
2002-04-11 06:40:21 51°13.765 2°55.693 16.9483 0.015952 0.08958  
2002-04-11 06:40:23 51°13.768 2°55.691 16.948004 0.015952 0.089583  
2002-04-11 06:40:29 51°13.775 2°55.684 16.945848 0.015952 0.089585  
2002-04-11 06:40:33 51°13.78 2°55.68 16.949484 0.015853 0.08905  
2002-04-11 06:40:39 51°13.788 2°55.673 16.945045 0.015952 0.08959  
2002-04-11 06:40:44 51°13.794 2°55.666 16.945045 0.015952 0.08959  
2002-04-11 06:40:49 51°13.801 2°55.66 16.945975 0.015952 0.089593  
2002-04-11 06:40:54 51°13.808 2°55.653 16.945087 0.015952 0.089595  
2002-04-11 06:40:58 51°13.813 2°55.647 16.946228 0.015952 0.089599  
2002-04-11 06:41:04 51°13.822 2°55.64 16.958362 0.015952 0.089603  
2002-04-11 06:41:09 51°13.83 2°55.633 16.953247 0.015853 0.089068  
2002-04-11 06:41:13 51°13.836 2°55.628 16.953247 0.015853 0.089068  
2002-04-11 06:41:19 51°13.845 2°55.62 16.953204 0.015853 0.089072  
2002-04-11 06:41:23 51°13.851 2°55.615 16.962378 0.015853 0.089073  
2002-04-11 06:41:29 51°13.86 2°55.607 16.954261 0.015952 0.089615  
2002-04-11 06:41:34 51°13.868 2°55.601 16.953585 0.015853 0.089079  
2002-04-11 06:41:39 51°13.876 2°55.595 -999 0.015853 0.089082  
2002-04-11 06:41:44 51°13.885 2°55.589 -999 0.015853 0.089082  
2002-04-11 06:41:50 51°13.895 2°55.583 22.542069 0.015952 0.089624  
2002-04-11 06:41:54 51°13.901 2°55.578 19.30392 0.015853 0.089088  
2002-04-11 06:42:00 51°13.911 2°55.57 16.64147 0.015853 0.089013  
2002-04-11 06:42:04 51°13.917 2°55.564 16.852978 0.015853 0.088935  
2002-04-11 06:42:09 51°13.926 2°55.557 17.027867 0.015853 0.088921  
2002-04-11 06:42:13 51°13.932 2°55.552 17.027867 0.015853 0.088921  
2002-04-11 06:42:19 51°13.942 2°55.544 16.9357 0.015853 0.088949  
2002-04-11 06:42:24 51°13.95 2°55.537 16.803806 0.015853 0.088994  
2002-04-11 06:42:29 51°13.958 2°55.531 16.980425 0.015853 0.089021  
2002-04-11 06:42:34 51°13.967 2°55.525 16.826639 0.015853 0.089046  
2002-04-11 06:42:39 51°13.975 2°55.519 16.913199 0.015853 0.089065  
2002-04-11 06:42:44 51°13.983 2°55.513 16.913199 0.015853 0.089065  
2002-04-11 06:42:49 51°13.991 2°55.507 16.880874 0.015853 0.089082  
2002-04-11 06:42:53 51°13.998 2°55.503 16.916118 0.015853 0.089094  
2002-04-11 06:42:59 51°14.007 2°55.496 16.909265 0.015853 0.089104  
2002-04-11 06:43:03 51°14.014 2°55.491 16.89395 0.015853 0.089113  
2002-04-11 06:43:09 51°14.023 2°55.484 16.969225 0.015853 0.089119  
2002-04-11 06:43:14 51°14.031 2°55.479 16.969225 0.015853 0.089119  
2002-04-11 06:43:18 51°14.037 2°55.475 16.92906 0.015853 0.089126  
2002-04-11 06:43:24 51°14.046 2°55.468 17.016801 0.015853 0.089133  
2002-04-11 06:43:29 51°14.054 2°55.463 16.873975 0.015853 0.089138  
2002-04-11 06:43:33 51°14.06 2°55.458 16.922885 0.015853 0.089145  
2002-04-11 06:43:39 51°14.07 2°55.452 17.038508 0.015853 0.089149  
2002-04-11 06:43:44 51°14.079 2°55.446 17.038508 0.015853 0.089149  
2002-04-11 06:43:49 51°14.087 2°55.439 16.899915 0.015853 0.089154  
2002-04-11 06:43:53 51°14.094 2°55.434 17.016379 0.015853 0.089158  
2002-04-11 06:43:58 51°14.103 2°55.428 17.018829 0.015853 0.089162  
2002-04-11 06:44:03 51°14.112 2°55.421 16.913876 0.015853 0.089165  
2002-04-11 06:44:09 51°14.123 2°55.413 16.95777 0.015853 0.089169  
2002-04-11 06:44:13 51°14.131 2°55.408 16.95777 0.015853 0.089169  
2002-04-11 06:44:19 51°14.144 2°55.4 16.875118 0.015853 0.089172  
2002-04-11 06:44:24 51°14.154 2°55.391 16.898096 0.015853 0.089174  
2002-04-11 06:44:29 51°14.165 2°55.383 16.958954 0.015853 0.08918  
2002-04-11 06:44:34 51°14.175 2°55.373 16.926777 0.015853 0.089182  
2002-04-11 06:44:39 51°14.185 2°55.363 16.852851 0.015853 0.089187  
2002-04-11 06:44:44 51°14.196 2°55.353 16.852851 0.015853 0.089187  
2002-04-11 06:44:49 51°14.206 2°55.342 16.855773 0.015853 0.08919  
2002-04-11 06:44:54 51°14.216 2°55.33 16.863393 0.015853 0.089195  
2002-04-11 06:44:59 51°14.226 2°55.317 16.871859 0.015853 0.0892  
2002-04-11 06:45:04 51°14.235 2°55.304 16.87863 0.015853 0.089207  
2002-04-11 06:45:08 51°14.242 2°55.293 16.860302 0.015853 0.089209  
2002-04-11 06:45:14 51°14.253 2°55.276 16.860302 0.015853 0.089209  
2002-04-11 06:45:19 51°14.262 2°55.261 16.926988 0.015853 0.089213  
2002-04-11 06:45:23 51°14.268 2°55.249 16.933458 0.015853 0.089217  
2002-04-11 06:45:29 51°14.278 2°55.231 16.938787 0.015853 0.089221  
2002-04-11 06:45:33 51°14.285 2°55.218 16.892511 0.015853 0.089225  
2002-04-11 06:45:39 51°14.294 2°55.199 16.96745 0.015853 0.089227  
2002-04-11 06:45:44 51°14.302 2°55.183 16.96745 0.015853 0.089227  
2002-04-11 06:45:49 51°14.31 2°55.166 16.864705 0.015853 0.089232  
2002-04-11 06:45:53 51°14.316 2°55.153 16.951302 0.015853 0.089234  
2002-04-11 06:45:59 51°14.326 2°55.133 16.916626 0.015853 0.089236  
2002-04-11 06:46:04 51°14.334 2°55.117 16.881001 0.015853 0.08924  
2002-04-11 06:46:09 51°14.342 2°55.099 16.920305 0.015853 0.089241  
2002-04-11 06:46:14 51°14.35 2°55.082 16.920305 0.015853 0.089241  
2002-04-11 06:46:19 51°14.358 2°55.064 17.065864 0.015853 0.089244  
2002-04-11 06:46:23 51°14.365 2°55.05 17.004425 0.015853 0.089243  
2002-04-11 06:46:29 51°14.376 2°55.03 16.981989 0.015853 0.089239  
2002-04-11 06:46:34 51°14.387 2°55.015 16.969733 0.015853 0.089247  
2002-04-11 06:46:38 51°14.396 2°55.003 17.009409 0.015853 0.089254  
2002-04-11 06:46:43 51°14.408 2°54.989 17.009409 0.015853 0.089254  
2002-04-11 06:46:49 51°14.422 2°54.973 16.967154 0.015853 0.089265  
2002-04-11 06:46:53 51°14.431 2°54.963 16.963477 0.015853 0.089274  
2002-04-11 06:46:59 51°14.446 2°54.948 16.935784 0.015853 0.089278  
2002-04-11 06:47:04 51°14.459 2°54.934 16.956417 0.015853 0.089281  
2002-04-11 06:47:09 51°14.472 2°54.921 16.994581 0.015853 0.089284  
2002-04-11 06:47:13 51°14.483 2°54.909 16.994581 0.015853 0.089284  
2002-04-11 06:47:19 51°14.499 2°54.891 16.932148 0.015853 0.089289  
2002-04-11 06:47:24 51°14.513 2°54.876 16.944791 0.015853 0.08929  
2002-04-11 06:47:29 51°14.527 2°54.861 17.009409 0.015853 0.089294  
2002-04-11 06:47:33 51°14.538 2°54.849 16.97827 0.015853 0.089294  
2002-04-11 06:47:39 51°14.555 2°54.831 16.939886 0.015853 0.089296  
2002-04-11 06:47:44 51°14.568 2°54.816 16.939886 0.015853 0.089296  
2002-04-11 06:47:49 51°14.583 2°54.801 17.030443 0.015853 0.089297  
2002-04-11 06:47:54 51°14.596 2°54.786 16.984313 0.015853 0.089303  
2002-04-11 06:47:58 51°14.608 2°54.775 17.064133 0.015853 0.089296  
2002-04-11 06:48:03 51°14.622 2°54.76 17.052989 0.015853 0.089302  
2002-04-11 06:48:09 51°14.639 2°54.742 17.133236 0.015853 0.08931  
2002-04-11 06:48:14 51°14.653 2°54.727 17.133236 0.015853 0.08931  
2002-04-11 06:48:19 51°14.668 2°54.714 10.085951 0.015853 0.089297  
2002-04-11 06:48:24 51°14.682 2°54.698 9.443287 0.015853 0.089294  
2002-04-11 06:48:29 51°14.697 2°54.684 9.424031 0.015853 0.089281  
2002-04-11 06:48:34 51°14.711 2°54.669 9.473981 0.015853 0.089275  
2002-04-11 06:48:38 51°14.722 2°54.657 9.4858 0.015853 0.089218  
2002-04-11 06:48:43 51°14.737 2°54.642 9.4858 0.015853 0.089218  
2002-04-11 06:48:49 51°14.754 2°54.623 9.34842 0.015755 0.089117  
2002-04-11 06:48:54 51°14.769 2°54.608 9.33487 0.015755 0.089174  
2002-04-11 06:48:59 51°14.784 2°54.593 9.27476 0.015755 0.088903  
2002-04-11 06:49:04 51°14.798 2°54.578 9.284576 0.015853 0.089321  
2002-04-11 06:49:09 51°14.813 2°54.563 9.232108 0.015952 0.08973  
2002-04-11 06:49:13 51°14.825 2°54.552 9.232108 0.015952 0.08973  
2002-04-11 06:49:19 51°14.843 2°54.533 9.227505 0.01605 0.090273  
2002-04-11 06:49:24 51°14.858 2°54.517 9.245443 0.059747 0.341923  
2002-04-11 06:49:29 51°14.873 2°54.502 9.234671 3.490818 27.714269  
2002-04-11 06:49:34 51°14.888 2°54.486 9.189524 3.515281 29.096157  
2002-04-11 06:49:39 51°14.903 2°54.471 9.226745 3.460101 30.005511  
2002-04-11 06:49:44 51°14.917 2°54.456 9.226745 3.460101 30.005511  
2002-04-11 06:49:49 51°14.932 2°54.441 9.17917 3.416631 30.046492  
2002-04-11 06:49:54 51°14.947 2°54.426 9.214641 3.38278 30.236433  
2002-04-11 06:49:59 51°14.961 2°54.411 9.18145 3.341314 30.045122  
2002-04-11 06:50:03 51°14.973 2°54.399 9.18221 3.323888 30.025254  
2002-04-11 06:50:09 51°14.99 2°54.382 9.253841 3.298749 29.853662  
2002-04-11 06:50:14 51°15.005 2°54.367 9.253841 3.298749 29.853662  
2002-04-11 06:50:19 51°15.019 2°54.352 9.22029 3.301955 29.908718  
2002-04-11 06:50:24 51°15.033 2°54.338 9.183398 3.327495 30.173286  
2002-04-11 06:50:29 51°15.047 2°54.323 9.18107 3.335908 30.233267  
2002-04-11 06:50:33 51°15.059 2°54.311 9.18031 3.335107 30.251148  
2002-04-11 06:50:38 51°15.073 2°54.295 9.215211 3.332804 30.210944  
2002-04-11 06:50:44 51°15.089 2°54.276 9.215211 3.332804 30.210944  
2002-04-11 06:50:49 51°15.103 2°54.261 9.175371 3.328597 30.208907  
2002-04-11 06:50:54 51°15.117 2°54.245 9.172806 3.324791 30.135232  
2002-04-11 06:50:59 51°15.132 2°54.229 9.170335 3.325092 30.17093  
2002-04-11 06:51:03 51°15.143 2°54.215 9.166297 3.320384 30.115443  
2002-04-11 06:51:09 51°15.16 2°54.195 9.163732 3.318381 30.104833  
2002-04-11 06:51:13 51°15.171 2°54.182 9.163732 3.318381 30.104833  
2002-04-11 06:51:18 51°15.185 2°54.167 9.161594 3.314375 30.067966  
2002-04-11 06:51:24 51°15.202 2°54.147 9.163162 3.311169 30.021511  
2002-04-11 06:51:29 51°15.217 2°54.131 9.164302 3.307363 29.977871  
2002-04-11 06:51:33 51°15.229 2°54.119 9.159789 3.303858 29.960941  
2002-04-11 06:51:38 51°15.243 2°54.102 9.159646 3.302656 29.948868  
2002-04-11 06:51:43 51°15.258 2°54.086 9.159646 3.302656 29.948868  
2002-04-11 06:51:49 51°15.276 2°54.067 9.159456 3.300153 29.948078  
2002-04-11 06:51:53 51°15.287 2°54.053 9.158791 3.297148 29.906381  
2002-04-11 06:51:59 51°15.305 2°54.034 9.158221 3.294344 29.889695  
2002-04-11 06:52:04 51°15.319 2°54.016 9.15461 3.29234 29.853365  
2002-04-11 06:52:09 51°15.334 2°54 9.232915 3.290338 29.882552  
2002-04-11 06:52:14 51°15.348 2°53.982 9.232915 3.290338 29.882552  
2002-04-11 06:52:19 51°15.363 2°53.965 9.152852 3.288734 29.772756  
2002-04-11 06:52:24 51°15.377 2°53.947 9.189619 3.286532 29.815249  
2002-04-11 06:52:29 51°15.392 2°53.931 9.187245 3.284128 29.765522  
2002-04-11 06:52:34 51°15.406 2°53.913 9.146151 3.282726 29.781057  
2002-04-11 06:52:39 51°15.421 2°53.896 9.143253 3.280923 29.75958  
2002-04-11 06:52:44 51°15.435 2°53.877 9.143253 3.280923 29.75958  
2002-04-11 06:52:49 51°15.45 2°53.862 9.143062 3.280222 29.782176  
2002-04-11 06:52:53 51°15.462 2°53.848 9.140211 3.279321 29.769743  
2002-04-11 06:52:59 51°15.481 2°53.829 9.209894 3.278519 29.728714  
2002-04-11 06:53:04 51°15.496 2°53.813 9.172521 3.274614 29.719064  
2002-04-11 06:53:09 51°15.511 2°53.797 9.136266 3.276316 29.727428  
2002-04-11 06:53:13 51°15.523 2°53.784 9.136266 3.276316 29.727428  
2002-04-11 06:53:19 51°15.542 2°53.764 9.13907 3.275416 29.789834  
2002-04-11 06:53:24 51°15.557 2°53.746 9.13926 3.273912 29.689843  
2002-04-11 06:53:29 51°15.571 2°53.73 9.140021 3.272912 29.749094  
2002-04-11 06:53:33 51°15.583 2°53.716 9.139878 3.272011 29.760268  
2002-04-11 06:53:39 51°15.601 2°53.695 9.13774 3.271009 29.779241  
2002-04-11 06:53:43 51°15.613 2°53.682 9.13774 3.271009 29.779241  
2002-04-11 06:53:49 51°15.631 2°53.661 9.137882 3.270508 29.754591  
2002-04-11 06:53:53 51°15.643 2°53.647 9.141732 3.269506 29.708088  
2002-04-11 06:53:58 51°15.658 2°53.629 9.181735 3.269307 29.750589  
2002-04-11 06:54:04 51°15.676 2°53.609 9.143538 3.268404 29.638558  
2002-04-11 06:54:09 51°15.69 2°53.59 9.18278 3.267804 29.727352  
2002-04-11 06:54:13 51°15.703 2°53.577 9.18278 3.267804 29.727352  
2002-04-11 06:54:19 51°15.72 2°53.555 9.146342 3.266802 29.662057  
2002-04-11 06:54:24 51°15.735 2°53.538 9.186057 3.266402 29.680218  
2002-04-11 06:54:29 51°15.75 2°53.52 9.147435 3.265801 29.703806  
2002-04-11 06:54:33 51°15.762 2°53.507 9.146009 3.2652 29.703148  
2002-04-11 06:54:38 51°15.776 2°53.487 9.14387 3.2647 29.71767  
2002-04-11 06:54:43 51°15.792 2°53.471 9.14387 3.2647 29.71767  
2002-04-11 06:54:49 51°15.809 2°53.449 9.143205 3.264098 29.665788  
2002-04-11 06:54:54 51°15.824 2°53.433 9.140734 3.262897 29.692756  
2002-04-11 06:54:58 51°15.836 2°53.418 9.180215 3.262797 29.699167  
2002-04-11 06:55:04 51°15.854 2°53.399 9.143395 3.262497 29.705587  
2002-04-11 06:55:09 51°15.868 2°53.38 9.144868 3.261695 29.694811  
2002-04-11 06:55:13 51°15.881 2°53.368 9.144868 3.261695 29.694811  
2002-04-11 06:55:19 51°15.899 2°53.347 9.144916 3.261595 29.671551  
2002-04-11 06:55:24 51°15.914 2°53.331 9.145486 3.261195 29.701238  
2002-04-11 06:55:29 51°15.929 2°53.314 9.145011 3.260794 29.656074  
2002-04-11 06:55:33 51°15.941 2°53.301 9.144583 3.260294 29.700927  
2002-04-11 06:55:39 51°15.96 2°53.282 9.146294 3.259592 29.689805  
2002-04-11 06:55:44 51°15.974 2°53.265 9.146294 3.259592 29.689805  
2002-04-11 06:55:49 51°15.989 2°53.249 9.146769 3.259693 29.715141  
2002-04-11 06:55:53 51°16.001 2°53.235 9.145344 3.259092 29.706372  
2002-04-11 06:55:59 51°16.019 2°53.217 9.184822 3.258992 29.683071  
2002-04-11 06:56:04 51°16.033 2°53.199 9.146009 3.258591 29.690508  
2002-04-11 06:56:09 51°16.048 2°53.185 9.146484 3.258891 29.686111  
2002-04-11 06:56:14 51°16.063 2°53.167 9.146484 3.258891 29.686111  
2002-04-11 06:56:19 51°16.078 2°53.153 9.143728 3.258491 29.711803  
2002-04-11 06:56:24 51°16.093 2°53.137 9.139973 3.25839 29.649372  
2002-04-11 06:56:29 51°16.109 2°53.123 9.175751 3.258591 29.714167  
2002-04-11 06:56:33 51°16.121 2°53.111 9.136171 3.25799 29.697282  
2002-04-11 06:56:38 51°16.136 2°53.096 9.177603 3.258091 29.7152  
2002-04-11 06:56:44 51°16.155 2°53.079 9.177603 3.258091 29.7152  
2002-04-11 06:56:49 51°16.17 2°53.065 9.141969 3.25749 29.683447  
2002-04-11 06:56:54 51°16.185 2°53.05 9.145011 3.258491 29.682746  
2002-04-11 06:56:59 51°16.2 2°53.035 9.145344 3.258091 29.711141  
2002-04-11 06:57:04 51°16.216 2°53.021 9.181355 3.25819 29.666223  
2002-04-11 06:57:09 51°16.231 2°53.004 9.178363 3.258391 29.721619  
2002-04-11 06:57:13 51°16.244 2°52.995 9.178363 3.258391 29.721619  
2002-04-11 06:57:19 51°16.262 2°52.975 9.215306 3.258191 29.690519  
2002-04-11 06:57:24 51°16.277 2°52.962 9.137359 3.258191 29.709446  
2002-04-11 06:57:29 51°16.292 2°52.944 9.138167 3.257389 29.657472  
2002-04-11 06:57:33 51°16.304 2°52.934 9.135601 3.258291 29.694232  
2002-04-11 06:57:39 51°16.322 2°52.915 9.173803 3.257289 29.68818  
2002-04-11 06:57:44 51°16.338 2°52.901 9.173803 3.257289 29.68818  
2002-04-11 06:57:49 51°16.353 2°52.886 9.133747 3.25809 29.694238  
2002-04-11 06:57:54 51°16.369 2°52.871 9.134032 3.25769 29.70101  
2002-04-11 06:57:59 51°16.384 2°52.856 9.134508 3.258291 29.705047  
2002-04-11 06:58:04 51°16.399 2°52.839 9.135316 3.258391 29.735164  
2002-04-11 06:58:09 51°16.415 2°52.825 9.136884 3.258291 29.71384  
2002-04-11 06:58:14 51°16.43 2°52.809 9.136884 3.258291 29.71384  
2002-04-11 06:58:19 51°16.445 2°52.795 9.139641 3.258892 29.727353  
2002-04-11 06:58:24 51°16.46 2°52.78 9.181213 3.257991 29.71013  
2002-04-11 06:58:29 51°16.476 2°52.766 9.145581 3.258992 29.740558  
2002-04-11 06:58:34 51°16.491 2°52.751 9.148623 3.257991 29.733827  
2002-04-11 06:58:39 51°16.507 2°52.738 9.192231 3.259093 29.751061  
2002-04-11 06:58:43 51°16.519 2°52.727 9.192231 3.259093 29.751061  
2002-04-11 06:58:48 51°16.535 2°52.714 9.19394 3.258892 29.747003  
2002-04-11 06:58:54 51°16.554 2°52.698 9.157318 3.259293 29.755799  
2002-04-11 06:58:59 51°16.57 2°52.687 9.197644 3.259093 29.748349  
2002-04-11 06:59:04 51°16.586 2°52.674 9.159504 3.257891 29.738915  
2002-04-11 06:59:09 51°16.601 2°52.662 9.159931 3.259293 29.746983  
2002-04-11 06:59:13 51°16.614 2°52.653 9.159931 3.259293 29.746983  
2002-04-11 06:59:19 51°16.633 2°52.638 9.159646 3.256989 29.71829  
2002-04-11 06:59:24 51°16.649 2°52.627 9.159028 3.258992 29.729719  
2002-04-11 06:59:29 51°16.665 2°52.614 9.158173 3.258391 29.732454  
2002-04-11 06:59:33 51°16.677 2°52.606 9.157936 3.259293 29.731399  
2002-04-11 06:59:38 51°16.693 2°52.593 9.157033 3.259794 29.754077  
2002-04-11 06:59:43 51°16.709 2°52.584 9.157033 3.259794 29.754077  
2002-04-11 06:59:49 51°16.728 2°52.569 9.153992 3.259293 29.731399  
2002-04-11 06:59:54 51°16.744 2°52.56 9.153944 3.260294 29.746934  
2002-04-11 06:59:59 51°16.759 2°52.547 9.154562 3.257991 29.72502  
2002-04-11 07:00:04 51°16.775 2°52.538 9.194083 3.260294 29.742191  
2002-04-11 07:00:09 51°16.79 2°52.527 9.155465 3.259793 29.744586  
2002-04-11 07:00:14 51°16.806 2°52.519 9.155465 3.259793 29.744586  
2002-04-11 07:00:18 51°16.818 2°52.51 9.158078 3.259493 29.742229  
2002-04-11 07:00:24 51°16.838 2°52.499 9.159599 3.260094 29.759149  
2002-04-11 07:00:29 51°16.854 2°52.488 9.160216 3.258892 29.740224  
2002-04-11 07:00:33 51°16.867 2°52.483 9.199639 3.261596 29.756698  
2002-04-11 07:00:39 51°16.886 2°52.471 9.160644 3.260194 29.762875  
2002-04-11 07:00:44 51°16.902 2°52.463 9.160644 3.260194 29.762875  
2002-04-11 07:00:49 51°16.918 2°52.452 9.160359 3.261596 29.759409  
2002-04-11 07:00:53 51°16.932 2°52.446 9.200493 3.263199 29.793246  
2002-04-11 07:00:59 51°16.951 2°52.434 9.199829 3.262297 29.765813  
2002-04-11 07:01:04 51°16.967 2°52.427 9.200778 3.264 29.791837  
2002-04-11 07:01:09 51°16.983 2°52.417 9.162069 3.262097 29.762434  
2002-04-11 07:01:13 51°16.996 2°52.41 9.162069 3.262097 29.762434  
2002-04-11 07:01:19 51°17.015 2°52.399 9.16435 3.264701 29.795527  
2002-04-11 07:01:24 51°17.031 2°52.39 9.166345 3.264501 29.805049  
2002-04-11 07:01:29 51°17.047 2°52.381 9.167058 3.264701 29.802318  
2002-04-11 07:01:34 51°17.063 2°52.371 9.166345 3.265602 29.817545  
2002-04-11 07:01:39 51°17.08 2°52.362 9.168103 3.264501 29.794861  
2002-04-11 07:01:43 51°17.092 2°52.353 9.168103 3.264501 29.794861  
2002-04-11 07:01:49 51°17.112 2°52.342 9.167723 3.266103 29.815811  
2002-04-11 07:01:54 51°17.128 2°52.331 9.168958 3.262998 29.781037  
2002-04-11 07:01:59 51°17.144 2°52.323 9.171095 3.266303 29.809004  
2002-04-11 07:02:04 51°17.16 2°52.313 9.173756 3.264601 29.795194  
2002-04-11 07:02:09 51°17.177 2°52.305 9.214926 3.267004 29.826282  
2002-04-11 07:02:13 51°17.19 2°52.297 9.214926 3.267004 29.826282  
2002-04-11 07:02:18 51°17.206 2°52.289 9.216445 3.265803 29.816172  
2002-04-11 07:02:24 51°17.226 2°52.28 9.179075 3.266804 29.80999  
2002-04-11 07:02:29 51°17.243 2°52.274 9.181308 3.267305 29.824561  
2002-04-11 07:02:33 51°17.256 2°52.27 9.183065 3.266804 29.805237  
2002-04-11 07:02:39 51°17.277 2°52.266 9.183588 3.267705 29.827931  
2002-04-11 07:02:43 51°17.29 2°52.263 9.183588 3.267705 29.827931  
2002-04-11 07:02:49 51°17.31 2°52.261 9.1843 3.265101 29.801613  
2002-04-11 07:02:54 51°17.326 2°52.26 9.18449 3.266804 29.807952  
2002-04-11 07:02:59 51°17.343 2°52.259 9.18468 3.2641 29.793528  
2002-04-11 07:03:04 51°17.36 2°52.26 9.263661 3.267505 29.802817  
2002-04-11 07:03:09 51°17.377 2°52.258 9.1862 3.266804 29.822218  
2002-04-11 07:03:13 51°17.39 2°52.259 9.1862 3.266804 29.822218  
2002-04-11 07:03:19 51°17.409 2°52.257 9.226081 3.267105 29.823216  
2002-04-11 07:03:24 51°17.426 2°52.259 9.187577 3.268406 29.835697  
2002-04-11 07:03:29 51°17.443 2°52.256 9.226935 3.266503 29.807633  
2002-04-11 07:03:34 51°17.46 2°52.257 9.267266 3.269308 29.838688  
2002-04-11 07:03:39 51°17.476 2°52.255 9.227789 3.267906 29.826557  
2002-04-11 07:03:43 51°17.489 2°52.255 9.227789 3.267906 29.826557  
2002-04-11 07:03:49 51°17.51 2°52.253 9.229403 3.269608 29.840365  
2002-04-11 07:03:53 51°17.523 2°52.253 9.22983 3.269608 29.846485  
2002-04-11 07:03:59 51°17.543 2°52.251 9.192326 3.270009 29.838296  
2002-04-11 07:04:04 51°17.559 2°52.25 9.194035 3.27101 29.859297  
2002-04-11 07:04:09 51°17.576 2°52.248 9.19584 3.270109 29.848146  
2002-04-11 07:04:13 51°17.589 2°52.247 9.19584 3.270109 29.848146  
2002-04-11 07:04:18 51°17.606 2°52.247 9.275756 3.271411 29.857224  
2002-04-11 07:04:23 51°17.622 2°52.244 9.199211 3.27071 29.852179  
2002-04-11 07:04:29 51°17.642 2°52.244 9.200398 3.271912 29.860924  
2002-04-11 07:04:34 51°17.659 2°52.242 9.24065 3.272012 29.86806  
2002-04-11 07:04:39 51°17.676 2°52.242 9.202203 3.272312 29.866333  
2002-04-11 07:04:43 51°17.689 2°52.239 9.202203 3.272312 29.866333  
2002-04-11 07:04:49 51°17.709 2°52.24 9.204102 3.273013 29.870017  
2002-04-11 07:04:53 51°17.722 2°52.237 9.204529 3.271811 29.855151  
2002-04-11 07:04:59 51°17.742 2°52.238 9.206476 3.273314 29.874414  
2002-04-11 07:05:03 51°17.756 2°52.235 9.205953 3.273214 29.877486  
2002-04-11 07:05:09 51°17.776 2°52.236 9.207805 3.273514 29.8778  
2002-04-11 07:05:14 51°17.792 2°52.233 9.207805 3.273514 29.8778  
2002-04-11 07:05:19 51°17.809 2°52.233 9.249001 3.274015 29.88218  
2002-04-11 07:05:24 51°17.826 2°52.23 9.209894 3.273314 29.875095  
2002-04-11 07:05:29 51°17.842 2°52.23 9.211318 3.274716 29.894033  
2002-04-11 07:05:33 51°17.856 2°52.227 9.210938 3.274215 29.885566  
2002-04-11 07:05:39 51°17.875 2°52.227 9.210321 3.274816 29.885513  
2002-04-11 07:05:44 51°17.892 2°52.224 9.210321 3.274816 29.885513  
2002-04-11 07:05:49 51°17.909 2°52.225 9.287848 3.275117 29.894677  
2002-04-11 07:05:53 51°17.922 2°52.222 9.211176 3.275016 29.890941  
2002-04-11 07:05:59 51°17.942 2°52.222 9.210891 3.276018 29.900383  
2002-04-11 07:06:04 51°17.959 2°52.22 9.211888 3.275818 29.899721  
2002-04-11 07:06:09 51°17.975 2°52.221 9.211176 3.276519 29.898634  
2002-04-11 07:06:13 51°17.989 2°52.219 9.211176 3.276519 29.898634  
2002-04-11 07:06:19 51°18.009 2°52.22 9.211745 3.276819 29.908481  
2002-04-11 07:06:24 51°18.025 2°52.219 9.214024 3.276619 29.904413  
2002-04-11 07:06:29 51°18.042 2°52.221 9.213644 3.27752 29.914205  
2002-04-11 07:06:34 51°18.059 2°52.222 9.25275 3.27712 29.9122  
2002-04-11 07:06:38 51°18.072 2°52.227 9.21165 3.27742 29.913193  
2002-04-11 07:06:43 51°18.088 2°52.233 9.21165 3.27742 29.913193  
2002-04-11 07:06:49 51°18.106 2°52.244 9.211176 3.27722 29.910487  
2002-04-11 07:06:53 51°18.118 2°52.253 9.249049 3.276519 29.90272  
2002-04-11 07:06:58 51°18.132 2°52.265 9.20866 3.276519 29.902039  
2002-04-11 07:07:04 51°18.148 2°52.283 9.20809 3.27712 29.908112  
2002-04-11 07:07:09 51°18.16 2°52.299 9.206381 3.275918 29.892562  
2002-04-11 07:07:14 51°18.171 2°52.317 9.206381 3.275918 29.892562  
2002-04-11 07:07:18 51°18.18 2°52.334 9.206903 3.277119 29.89926  
2002-04-11 07:07:24 51°18.191 2°52.359 9.244304 3.274916 29.876999  
2002-04-11 07:07:29 51°18.199 2°52.381 9.244731 3.273414 29.864542  
2002-04-11 07:07:33 51°18.204 2°52.4 9.205811 3.274115 29.857348  
2002-04-11 07:07:39 51°18.213 2°52.428 9.204956 3.271611 29.841573  
2002-04-11 07:07:43 51°18.219 2°52.447 9.204956 3.271611 29.841573  
2002-04-11 07:07:49 51°18.228 2°52.474 9.204529 3.274515 29.871591  
2002-04-11 07:07:53 51°18.235 2°52.491 9.242501 3.27742 29.881206  
2002-04-11 07:07:59 51°18.245 2°52.518 9.242928 3.278622 29.913077  
2002-04-11 07:08:04 51°18.254 2°52.54 9.203627 3.279022 29.924619  
2002-04-11 07:08:09 51°18.263 2°52.562 9.203057 3.279924 29.935774  
2002-04-11 07:08:14 51°18.272 2°52.584 9.203057 3.279924 29.935774  
2002-04-11 07:08:19 51°18.281 2°52.606 9.202487 3.280525 29.944576  
2002-04-11 07:08:24 51°18.29 2°52.627 9.241932 3.281426 29.951642  
2002-04-11 07:08:29 51°18.299 2°52.65 9.201823 3.282127 29.957364  
2002-04-11 07:08:34 51°18.308 2°52.671 9.240413 3.281626 29.955713  
2002-04-11 07:08:39 51°18.317 2°52.693 9.201395 3.283329 29.963372  
2002-04-11 07:08:44 51°18.326 2°52.714 9.201395 3.283329 29.963372  
2002-04-11 07:08:49 51°18.335 2°52.736 9.201063 3.282828 29.965816  
2002-04-11 07:08:54 51°18.344 2°52.757 9.199401 3.284531 29.972789  
2002-04-11 07:08:59 51°18.353 2°52.779 9.198357 3.284831 29.993581  
2002-04-11 07:09:03 51°18.36 2°52.796 9.198072 3.285232 29.9908  
2002-04-11 07:09:09 51°18.371 2°52.822 9.23581 3.284932 29.993911  
2002-04-11 07:09:13 51°18.378 2°52.84 9.23581 3.284932 29.993911  
2002-04-11 07:09:19 51°18.388 2°52.866 9.234908 3.284932 29.989811  
2002-04-11 07:09:24 51°18.397 2°52.888 9.234624 3.285933 30.001989  
2002-04-11 07:09:29 51°18.406 2°52.91 9.195555 3.286534 30.010116  
2002-04-11 07:09:34 51°18.415 2°52.932 9.233674 3.288838 30.027941  
2002-04-11 07:09:39 51°18.424 2°52.953 9.193086 3.288938 30.035796  
2002-04-11 07:09:43 51°18.431 2°52.971 9.193086 3.288938 30.035796  
2002-04-11 07:09:49 51°18.441 2°52.997 9.192943 3.289739 30.0439  
2002-04-11 07:09:54 51°18.45 2°53.02 9.191519 3.29044 30.0462  
2002-04-11 07:09:59 51°18.459 2°53.041 9.192183 3.289739 30.030901  
2002-04-11 07:10:03 51°18.466 2°53.058 9.191376 3.291041 30.051594  
2002-04-11 07:10:09 51°18.476 2°53.085 9.192516 3.289739 30.030901  
2002-04-11 07:10:13 51°18.483 2°53.103 9.192516 3.289739 30.030901  
2002-04-11 07:10:19 51°18.493 2°53.129 9.192753 3.291241 30.050197  
2002-04-11 07:10:24 51°18.502 2°53.151 9.192088 3.291742 30.069644  
2002-04-11 07:10:29 51°18.51 2°53.174 9.190949 3.292243 30.076767  
2002-04-11 07:10:34 51°18.519 2°53.196 9.190331 3.292543 30.083236  
2002-04-11 07:10:38 51°18.526 2°53.213 9.189619 3.292944 30.072211  
2002-04-11 07:10:43 51°18.535 2°53.236 9.189619 3.292944 30.072211  
2002-04-11 07:10:49 51°18.545 2°53.262 9.189192 3.292944 30.086604  
2002-04-11 07:10:54 51°18.554 2°53.284 9.228644 3.293144 30.087946  
2002-04-11 07:10:59 51°18.563 2°53.306 9.227695 3.293545 30.093372  
2002-04-11 07:11:04 51°18.572 2°53.328 9.227884 3.293846 30.098471  
2002-04-11 07:11:09 51°18.581 2°53.35 9.187482 3.294346 30.10354  
2002-04-11 07:11:13 51°18.588 2°53.367 9.187482 3.294346 30.10354  
2002-04-11 07:11:19 51°18.598 2°53.394 9.186532 3.294246 30.101154  
2002-04-11 07:11:24 51°18.608 2°53.415 9.18525 3.294246 30.102526  
2002-04-11 07:11:29 51°18.616 2°53.438 9.223945 3.294446 30.097693  
2002-04-11 07:11:34 51°18.625 2°53.459 9.183635 3.294547 30.108313  
2002-04-11 07:11:39 51°18.633 2°53.482 9.182115 3.293946 30.098799  
2002-04-11 07:11:44 51°18.644 2°53.503 9.182115 3.293946 30.098799  
2002-04-11 07:11:49 51°18.652 2°53.526 9.18164 3.295047 30.111323  
2002-04-11 07:11:54 51°18.662 2°53.547 9.219958 3.294947 30.101389  
2002-04-11 07:11:59 51°18.67 2°53.57 9.18088 3.295248 30.10786  
2002-04-11 07:12:04 51°18.68 2°53.591 9.18069 3.294847 30.109295  
2002-04-11 07:12:09 51°18.687 2°53.614 9.180738 3.295448 30.118124  
2002-04-11 07:12:13 51°18.694 2°53.632 9.180738 3.295448 30.118124  
2002-04-11 07:12:19 51°18.703 2°53.66 9.180358 3.295448 30.119497  
2002-04-11 07:12:24 51°18.711 2°53.683 9.179788 3.295548 30.117765  
2002-04-11 07:12:29 51°18.717 2°53.707 9.17993 3.295849 30.120806  
2002-04-11 07:12:34 51°18.723 2°53.731 9.218296 3.296249 30.125549  
2002-04-11 07:12:39 51°18.729 2°53.756 9.178031 3.296049 30.115969  
2002-04-11 07:12:44 51°18.735 2°53.78 9.178031 3.296049 30.115969  
2002-04-11 07:12:49 51°18.739 2°53.806 9.216113 3.295949 30.125254  
2002-04-11 07:12:54 51°18.743 2°53.832 9.176938 3.296149 30.124535  
2002-04-11 07:12:59 51°18.747 2°53.857 9.215401 3.296249 30.133793  
2002-04-11 07:13:04 51°18.751 2°53.883 9.176463 3.29665 30.130978  
2002-04-11 07:13:09 51°18.755 2°53.909 9.176226 3.29665 30.130978  
2002-04-11 07:13:13 51°18.759 2°53.93 9.176226 3.29665 30.130978  
2002-04-11 07:13:19 51°18.764 2°53.96 9.175608 3.29635 30.136869  
2002-04-11 07:13:24 51°18.768 2°53.986 9.175941 3.29675 30.140239  
2002-04-11 07:13:29 51°18.772 2°54.011 9.215021 3.29685 30.140565  
2002-04-11 07:13:33 51°18.776 2°54.032 9.175466 3.297251 30.141186  
2002-04-11 07:13:39 51°18.782 2°54.062 9.175371 3.297051 30.146032  
2002-04-11 07:13:44 51°18.785 2°54.089 9.175371 3.297051 30.146032  
2002-04-11 07:13:49 51°18.791 2°54.113 9.175941 3.29685 30.135068  
2002-04-11 07:13:53 51°18.794 2°54.134 9.175798 3.297351 30.1477  
2002-04-11 07:13:58 51°18.799 2°54.159 9.174896 3.297852 30.154835  
2002-04-11 07:14:04 51°18.804 2°54.19 9.175656 3.297752 30.146944  
2002-04-11 07:14:09 51°18.811 2°54.214 9.175181 3.297551 30.149041  
2002-04-11 07:14:13 51°18.814 2°54.235 9.175181 3.297551 30.149041  
2002-04-11 07:14:19 51°18.822 2°54.264 9.173803 3.297451 30.148714  
2002-04-11 07:14:24 51°18.825 2°54.29 9.173518 3.297652 30.14868  
2002-04-11 07:14:29 51°18.832 2°54.314 9.172188 3.298353 30.155092  
2002-04-11 07:14:33 51°18.835 2°54.335 9.172616 3.297652 30.146617  
2002-04-11 07:14:39 51°18.843 2°54.364 9.17062 3.297752 30.146944  
2002-04-11 07:14:44 51°18.847 2°54.389 9.17062 3.297752 30.146944  
2002-04-11 07:14:49 51°18.852 2°54.414 9.209087 3.298353 30.154405  
2002-04-11 07:14:53 51°18.856 2°54.435 9.169243 3.297652 30.146617  
2002-04-11 07:14:58 51°18.861 2°54.46 9.168625 3.297652 30.14593  
2002-04-11 07:15:04 51°18.867 2°54.49 9.167723 3.297652 30.150055  
2002-04-11 07:15:09 51°18.872 2°54.516 9.166155 3.297652 30.156245  
2002-04-11 07:15:13 51°18.876 2°54.536 9.166155 3.297652 30.156245  
2002-04-11 07:15:19 51°18.882 2°54.567 9.166155 3.297652 30.155557  
2002-04-11 07:15:23 51°18.887 2°54.586 9.163637 3.297351 30.154577  
2002-04-11 07:15:29 51°18.893 2°54.617 9.162212 3.297451 30.150777  
2002-04-11 07:15:34 51°18.898 2°54.642 9.159884 3.297251 30.151499  
2002-04-11 07:15:39 51°18.903 2°54.668 9.196505 3.297251 30.146685  
2002-04-11 07:15:44 51°18.909 2°54.692 9.196505 3.297251 30.146685  
2002-04-11 07:15:49 51°18.913 2°54.718 9.193086 3.297051 30.14947  
2002-04-11 07:15:54 51°18.92 2°54.742 9.151521 3.29685 30.147441  
2002-04-11 07:15:58 51°18.923 2°54.763 9.148052 3.29685 30.151568  
2002-04-11 07:16:04 51°18.93 2°54.793 9.146864 3.296951 30.149831  
2002-04-11 07:16:09 51°18.935 2°54.819 9.222758 3.29665 30.150914  
2002-04-11 07:16:14 51°18.94 2°54.844 9.222758 3.29665 30.150914  
2002-04-11 07:16:19 51°18.945 2°54.869 9.143348 3.296851 30.154319  
2002-04-11 07:16:24 51°18.951 2°54.894 9.141922 3.29645 30.151636  
2002-04-11 07:16:29 51°18.955 2°54.92 9.217442 3.29645 30.146134  
2002-04-11 07:16:33 51°18.96 2°54.94 9.136932 3.29645 30.155765  
2002-04-11 07:16:38 51°18.964 2°54.966 9.135791 3.296049 30.148953  
2002-04-11 07:16:44 51°18.97 2°54.996 9.135791 3.296049 30.148953  
2002-04-11 07:16:49 51°18.976 2°55.021 9.135221 3.29625 30.150983  
2002-04-11 07:16:54 51°18.981 2°55.047 9.1337 3.29615 30.158227  
2002-04-11 07:16:59 51°18.986 2°55.072 9.131893 3.29625 30.152359  
2002-04-11 07:17:03 51°18.99 2°55.092 9.130325 3.29625 30.151671  
2002-04-11 07:17:09 51°18.996 2°55.122 9.129041 3.295649 30.140767  
2002-04-11 07:17:14 51°19.001 2°55.148 9.129041 3.295649 30.140767  
2002-04-11 07:17:19 51°19.007 2°55.173 9.127996 3.296049 30.146202  
2002-04-11 07:17:24 51°19.011 2°55.199 9.12657 3.296149 30.148592  
2002-04-11 07:17:29 51°19.017 2°55.224 9.125476 3.296049 30.151706  
2002-04-11 07:17:34 51°19.022 2°55.249 9.125191 3.29635 30.163699  
2002-04-11 07:17:39 51°19.026 2°55.274 9.123812 3.29605 30.164097  
2002-04-11 07:17:44 51°19.031 2°55.299 9.123812 3.29605 30.164097  
2002-04-11 07:17:49 51°19.037 2°55.324 9.123432 3.29615 30.165112  
2002-04-11 07:17:53 51°19.041 2°55.344 9.121721 3.29625 30.163373  
2002-04-11 07:17:59 51°19.047 2°55.374 9.118108 3.29635 30.173343  
2002-04-11 07:18:04 51°19.053 2°55.399 9.153897 3.29645 30.175048  
2002-04-11 07:18:09 51°19.058 2°55.425 9.113686 3.297151 30.182157  
2002-04-11 07:18:13 51°19.062 2°55.445 9.113686 3.297151 30.182157  
2002-04-11 07:18:18 51°19.068 2°55.47 9.112355 3.29655 30.180888  
2002-04-11 07:18:23 51°19.072 2°55.496 9.111974 3.29655 30.176753  
2002-04-11 07:18:29 51°19.079 2°55.526 9.148432 3.296751 30.183609  
2002-04-11 07:18:34 51°19.084 2°55.551 9.147767 3.296651 30.175701  
2002-04-11 07:18:39 51°19.09 2°55.576 9.106744 3.296851 30.186694  
2002-04-11 07:18:44 51°19.094 2°55.602 9.106744 3.296851 30.186694  
2002-04-11 07:18:49 51°19.1 2°55.626 9.143918 3.296751 30.180162  
2002-04-11 07:18:53 51°19.104 2°55.647 9.103653 3.296851 30.170842  
2002-04-11 07:18:58 51°19.109 2°55.672 9.10332 3.296751 30.18292  
2002-04-11 07:19:04 51°19.115 2°55.702 9.102322 3.296751 30.18292  
2002-04-11 07:19:09 51°19.121 2°55.727 9.101561 3.296851 30.194281  
2002-04-11 07:19:14 51°19.126 2°55.753 9.101561 3.296851 30.194281  
2002-04-11 07:19:19 51°19.132 2°55.777 9.102132 3.296951 30.194608  
2002-04-11 07:19:24 51°19.137 2°55.803 9.101466 3.296851 30.191522  
2002-04-11 07:19:29 51°19.143 2°55.827 9.10099 3.296951 30.188399  
2002-04-11 07:19:33 51°19.146 2°55.848 9.140876 3.297151 30.19388  
2002-04-11 07:19:39 51°19.153 2°55.879 9.179503 3.297051 30.205977  
2002-04-11 07:19:44 51°19.158 2°55.904 9.179503 3.297051 30.205977  
2002-04-11 07:19:49 51°19.163 2°55.929 9.103035 3.296451 30.199188  
2002-04-11 07:19:54 51°19.168 2°55.955 9.142017 3.296751 30.193955  
2002-04-11 07:19:59 51°19.174 2°55.98 9.103178 3.296951 30.205651  
2002-04-11 07:20:03 51°19.177 2°56 9.104604 3.296951 30.198058  
2002-04-11 07:20:09 51°19.184 2°56.03 9.10546 3.296851 30.198422  
2002-04-11 07:20:13 51°19.188 2°56.05 9.10546 3.296851 30.198422  
2002-04-11 07:20:19 51°19.195 2°56.08 9.10546 3.296851 30.197042  
2002-04-11 07:20:23 51°19.199 2°56.1 9.107362 3.296551 30.198824  
2002-04-11 07:20:29 51°19.206 2°56.129 9.146484 3.296451 30.200569  
2002-04-11 07:20:33 51°19.21 2°56.15 9.108741 3.29605 30.186843  
2002-04-11 07:20:39 51°19.217 2°56.18 9.109169 3.29615 30.199591  
2002-04-11 07:20:44 51°19.222 2°56.205 9.109169 3.29615 30.199591  
2002-04-11 07:20:49 51°19.227 2°56.23 9.1105 3.29615 30.196829  
2002-04-11 07:20:53 51°19.232 2°56.25 9.111879 3.295649 30.195199  
2002-04-11 07:20:58 51°19.237 2°56.275 9.111499 3.295549 30.192111  
2002-04-11 07:21:04 51°19.243 2°56.305 9.11264 3.295149 30.188046  
2002-04-11 07:21:09 51°19.248 2°56.33 9.113781 3.294848 30.184997  
2002-04-11 07:21:13 51°19.252 2°56.35 9.113781 3.294848 30.184997  
2002-04-11 07:21:19 51°19.259 2°56.38 9.114447 3.294447 30.183691  
2002-04-11 07:21:23 51°19.263 2°56.401 9.115112 3.293947 30.17447  
2002-04-11 07:21:29 51°19.27 2°56.43 9.153184 3.293746 30.175196  
2002-04-11 07:21:34 51°19.274 2°56.456 9.115065 3.293746 30.174507  
2002-04-11 07:21:39 51°19.281 2°56.48 9.114114 3.293145 30.169788  
2002-04-11 07:21:43 51°19.284 2°56.501 9.114114 3.293145 30.169788  
2002-04-11 07:21:49 51°19.292 2°56.53 9.192516 3.292745 30.163654  
2002-04-11 07:21:53 51°19.295 2°56.551 9.114637 3.291944 30.152077  
2002-04-11 07:21:59 51°19.302 2°56.58 9.114304 3.292444 30.159226  
2002-04-11 07:22:04 51°19.307 2°56.605 9.114589 3.291443 30.149753  
2002-04-11 07:22:09 51°19.313 2°56.63 9.113496 3.290541 30.142675  
2002-04-11 07:22:14 51°19.318 2°56.656 9.113496 3.290541 30.142675  
2002-04-11 07:22:18 51°19.322 2°56.676 9.114352 3.290842 30.144345  
2002-04-11 07:22:23 51°19.329 2°56.7 9.152471 3.28994 30.135889  
2002-04-11 07:22:29 51°19.335 2°56.731 9.113781 3.290041 30.134838  
2002-04-11 07:22:33 51°19.34 2°56.75 9.11302 3.28964 30.132151  
2002-04-11 07:22:39 51°19.346 2°56.781 9.113639 3.289339 30.126348  
2002-04-11 07:22:44 51°19.352 2°56.806 9.113639 3.289339 30.126348  
2002-04-11 07:22:49 51°19.356 2°56.831 9.113543 3.288438 30.11927  
2002-04-11 07:22:54 51°19.362 2°56.856 9.113781 3.288739 30.119564  
2002-04-11 07:22:59 51°19.366 2°56.882 9.113543 3.287537 30.108061  
2002-04-11 07:23:04 51°19.372 2°56.907 9.111832 3.286936 30.103341  
2002-04-11 07:23:09 51°19.377 2°56.932 9.110073 3.286535 30.100654  
2002-04-11 07:23:13 51°19.382 2°56.952 9.110073 3.286535 30.100654  
2002-04-11 07:23:19 51°19.388 2°56.983 9.109835 3.286034 30.094886  
2002-04-11 07:23:24 51°19.394 2°57.007 9.108408 3.285934 30.091119  
2002-04-11 07:23:29 51°19.399 2°57.033 9.106792 3.285333 30.086399  
2002-04-11 07:23:33 51°19.404 2°57.053 9.105888 3.285433 30.08879  
2002-04-11 07:23:39 51°19.411 2°57.083 9.142635 3.284432 30.077256  
2002-04-11 07:23:44 51°19.416 2°57.108 9.142635 3.284432 30.077256  
2002-04-11 07:23:49 51°19.422 2°57.133 9.102607 3.284031 30.075943  
2002-04-11 07:23:54 51°19.428 2°57.158 9.101466 3.283831 30.074599  
2002-04-11 07:23:59 51°19.433 2°57.183 9.10042 3.28343 30.069848  
2002-04-11 07:24:04 51°19.438 2°57.209 9.099611 3.28293 30.06202  
2002-04-11 07:24:09 51°19.443 2°57.234 9.137312 3.282529 30.059331  
2002-04-11 07:24:14 51°19.449 2°57.258 9.137312 3.282529 30.059331  
2002-04-11 07:24:19 51°19.453 2°57.284 9.097994 3.281928 30.053236  
2002-04-11 07:24:24 51°19.46 2°57.309 9.097519 3.281628 30.051563  
2002-04-11 07:24:29 51°19.464 2°57.335 9.136219 3.280927 30.042393  
2002-04-11 07:24:33 51°19.47 2°57.354 9.096853 3.280526 30.036957  
2002-04-11 07:24:39 51°19.475 2°57.385 9.097091 3.279524 30.028174  
2002-04-11 07:24:44 51°19.482 2°57.409 9.097091 3.279524 30.028174  
2002-04-11 07:24:49 51°19.486 2°57.435 9.096663 3.278823 30.024496  
2002-04-11 07:24:54 51°19.493 2°57.459 9.095997 3.278924 30.023453  
2002-04-11 07:24:59 51°19.497 2°57.485 9.09671 3.277622 30.011622  
2002-04-11 07:25:04 51°19.504 2°57.509 9.094903 3.277822 30.015712  
2002-04-11 07:25:09 51°19.508 2°57.534 9.172948 3.277121 30.003115  
2002-04-11 07:25:14 51°19.515 2°57.559 9.172948 3.277121 30.003115  
2002-04-11 07:25:19 51°19.519 2°57.585 9.094523 3.27682 30.003497  
2002-04-11 07:25:24 51°19.525 2°57.609 9.094808 3.27682 30.008299  
2002-04-11 07:25:29 51°19.53 2°57.635 9.095283 3.276119 30.001189  
2002-04-11 07:25:33 51°19.534 2°57.655 9.095379 3.275518 29.997839  
2002-04-11 07:25:39 51°19.542 2°57.685 9.172616 3.274517 29.988367  
2002-04-11 07:25:44 51°19.547 2°57.71 9.172616 3.274517 29.988367  
2002-04-11 07:25:49 51°19.553 2°57.735 9.13465 3.273315 29.976864  
2002-04-11 07:25:54 51°19.558 2°57.761 9.096948 3.272414 29.966352  
2002-04-11 07:25:59 51°19.564 2°57.785 9.098327 3.272614 29.969754  
2002-04-11 07:26:04 51°19.569 2°57.811 9.098993 3.270511 29.949796  
2002-04-11 07:26:09 51°19.575 2°57.836 9.100705 3.26991 29.945757  
2002-04-11 07:26:14 51°19.58 2°57.862 9.100705 3.26991 29.945757  
2002-04-11 07:26:19 51°19.586 2°57.887 9.102464 3.268708 29.926725  
2002-04-11 07:26:23 51°19.59 2°57.906 9.104367 3.267506 29.911805  
2002-04-11 07:26:29 51°19.597 2°57.936 9.105888 3.266805 29.912905  
2002-04-11 07:26:33 51°19.602 2°57.957 9.107315 3.265403 29.895955  
2002-04-11 07:26:39 51°19.608 2°57.987 9.109074 3.265403 29.899373  
2002-04-11 07:26:44 51°19.613 2°58.013 9.109074 3.265403 29.899373  
2002-04-11 07:26:49 51°19.619 2°58.037 9.110168 3.264101 29.880023  
2002-04-11 07:26:54 51°19.624 2°58.062 9.111404 3.2633 29.876684  
2002-04-11 07:26:59 51°19.631 2°58.087 9.113639 3.2631 29.871921  
2002-04-11 07:27:04 51°19.636 2°58.113 9.115065 3.261898 29.863153  
2002-04-11 07:27:09 51°19.642 2°58.137 9.115968 3.261597 29.86079  
2002-04-11 07:27:14 51°19.647 2°58.163 9.115968 3.261597 29.86079  
2002-04-11 07:27:19 51°19.654 2°58.187 9.195413 3.261397 29.853298  
2002-04-11 07:27:23 51°19.658 2°58.207 9.11825 3.260396 29.845878  
2002-04-11 07:27:29 51°19.665 2°58.237 9.119391 3.260996 29.850603  
2002-04-11 07:27:34 51°19.67 2°58.263 9.12096 3.259594 29.836393  
2002-04-11 07:27:38 51°19.676 2°58.282 9.121008 3.259394 29.833681  
2002-04-11 07:27:43 51°19.68 2°58.308 9.121008 3.259394 29.833681  
2002-04-11 07:27:49 51°19.687 2°58.338 9.123242 3.258593 29.824197  
2002-04-11 07:27:54 51°19.692 2°58.364 9.123099 3.258393 29.820804  
2002-04-11 07:27:58 51°19.696 2°58.384 9.125429 3.258593 29.825561  
2002-04-11 07:28:03 51°19.701 2°58.409 9.125476 3.257992 29.816745  
2002-04-11 07:28:09 51°19.709 2°58.439 9.125571 3.257992 29.815381  
2002-04-11 07:28:14 51°19.713 2°58.465 9.125571 3.257992 29.815381  
2002-04-11 07:28:19 51°19.72 2°58.49 9.126475 3.257291 29.80896  
2002-04-11 07:28:24 51°19.725 2°58.516 9.126855 3.257191 29.804538  
2002-04-11 07:28:29 51°19.731 2°58.541 9.128423 3.257491 29.807582  
2002-04-11 07:28:34 51°19.735 2°58.567 9.16834 3.25709 29.802842  
2002-04-11 07:28:39 51°19.742 2°58.591 9.129136 3.25709 29.80148  
2002-04-11 07:28:44 51°19.746 2°58.617 9.129136 3.25709 29.80148  
2002-04-11 07:28:49 51°19.752 2°58.641 9.130705 3.258192 29.811277  
2002-04-11 07:28:53 51°19.756 2°58.662 9.130753 3.257491 29.804176  
2002-04-11 07:28:59 51°19.763 2°58.692 9.169955 3.257391 29.80248  
2002-04-11 07:29:04 51°19.769 2°58.718 9.131608 3.257791 29.805176  
2002-04-11 07:29:09 51°19.775 2°58.742 9.131466 3.257791 29.805176  
2002-04-11 07:29:13 51°19.779 2°58.762 9.131466 3.257791 29.805176  
2002-04-11 07:29:19 51°19.786 2°58.792 9.132606 3.258092 29.805494  
2002-04-11 07:29:24 51°19.791 2°58.817 9.131751 3.258392 29.8099  
2002-04-11 07:29:29 51°19.797 2°58.842 9.132701 3.258192 29.807871  
2002-04-11 07:29:34 51°19.802 2°58.867 9.133272 3.258693 29.8109  
2002-04-11 07:29:39 51°19.808 2°58.891 9.133462 3.258993 29.814624  
2002-04-11 07:29:44 51°19.813 2°58.917 9.133462 3.258993 29.814624  
2002-04-11 07:29:49 51°19.82 2°58.941 9.134365 3.259594 29.81526  
2002-04-11 07:29:54 51°19.825 2°58.966 9.173898 3.259694 29.821044  
2002-04-11 07:29:59 51°19.831 2°58.991 9.135316 3.259294 29.816305  
2002-04-11 07:30:04 51°19.837 2°59.016 9.134935 3.260295 29.823723  
2002-04-11 07:30:09 51°19.842 2°59.039 9.136314 3.261096 29.833201  
2002-04-11 07:30:13 51°19.847 2°59.06 9.136314 3.261096 29.833201  
2002-04-11 07:30:19 51°19.854 2°59.089 9.137027 3.261197 29.834216  
2002-04-11 07:30:23 51°19.858 2°59.109 9.137217 3.261597 29.838274  
2002-04-11 07:30:29 51°19.865 2°59.139 9.138072 3.262098 29.842664  
2002-04-11 07:30:34 51°19.87 2°59.165 9.1385 3.262899 29.848052  
2002-04-11 07:30:39 51°19.876 2°59.189 9.138548 3.262899 29.849416  
2002-04-11 07:30:44 51°19.882 2°59.214 9.138548 3.262899 29.849416  
2002-04-11 07:30:49 51°19.887 2°59.239 9.139355 3.2636 29.855153  
2002-04-11 07:30:54 51°19.893 2°59.264 9.139498 3.2635 29.855503  
2002-04-11 07:30:59 51°19.898 2°59.289 9.140639 3.264301 29.860208  
2002-04-11 07:31:03 51°19.902 2°59.308 9.141209 3.264201 29.859193  
2002-04-11 07:31:09 51°19.908 2°59.339 9.141874 3.265002 29.863898  
2002-04-11 07:31:14 51°19.914 2°59.364 9.141874 3.265002 29.863898  
2002-04-11 07:31:19 51°19.92 2°59.388 9.142017 3.264902 29.866977  
2002-04-11 07:31:24 51°19.925 2°59.413 9.14254 3.265202 29.870702  
2002-04-11 07:31:29 51°19.931 2°59.438 9.142872 3.265202 29.867291  
2002-04-11 07:31:34 51°19.937 2°59.463 9.142825 3.266204 29.8788  
2002-04-11 07:31:39 51°19.942 2°59.488 9.143395 3.266805 29.885569  
2002-04-11 07:31:43 51°19.948 2°59.507 9.143395 3.266805 29.885569  
2002-04-11 07:31:49 51°19.954 2°59.537 9.14387 3.267506 29.893354  
2002-04-11 07:31:53 51°19.959 2°59.557 9.144441 3.267806 29.894349  
2002-04-11 07:31:59 51°19.965 2°59.587 9.145011 3.268808 29.903811  
2002-04-11 07:32:04 51°19.971 2°59.611 9.18411 3.268608 29.902465  
2002-04-11 07:32:09 51°19.976 2°59.637 9.145486 3.269609 29.909195  
2002-04-11 07:32:13 51°19.982 2°59.656 9.145486 3.269609 29.909195  
2002-04-11 07:32:19 51°19.987 2°59.687 9.145914 3.27041 29.917995  
2002-04-11 07:32:24 51°19.994 2°59.711 9.185487 3.27001 29.913253  
2002-04-11 07:32:29 51°19.998 2°59.736 9.146959 3.27051 29.917642  
2002-04-11 07:32:34 51°20.005 2°59.761 9.18677 3.270811 29.919319  
2002-04-11 07:32:39 51°20.01 2°59.786 9.148242 3.271211 29.924744  
2002-04-11 07:32:44 51°20.017 2°59.811 9.148242 3.271211 29.924744  
2002-04-11 07:32:49 51°20.022 2°59.836 9.14791 3.271212 29.925428  
2002-04-11 07:32:54 51°20.029 2°59.86 9.149145 3.271612 29.926068  
2002-04-11 07:32:59 51°20.034 2°59.885 9.148908 3.272313 29.935905  
2002-04-11 07:33:04 51°20.04 2°59.909 9.150048 3.272413 29.936235  
2002-04-11 07:33:09 51°20.046 2°59.935 9.150476 3.272714 29.939279  
2002-04-11 07:33:14 51°20.052 2°59.959 9.150476 3.272714 29.939279  
2002-04-11 07:33:19 51°20.057 2°59.985 9.189239 3.272914 29.941992  
2002-04-11 07:33:23 51°20.061 3°0.004 9.150903 3.273114 29.942654  
2002-04-11 07:33:29 51°20.068 3°0.034 9.151474 3.273415 29.945697  
2002-04-11 07:33:33 51°20.073 3°0.054 9.151616 3.273815 29.949072  
2002-04-11 07:33:39 51°20.079 3°0.084 9.191091 3.273315 29.943999  
2002-04-11 07:33:44 51°20.085 3°0.109 9.191091 3.273315 29.943999  
2002-04-11 07:33:49 51°20.091 3°0.134 9.191804 3.274216 29.951078  
2002-04-11 07:33:54 51°20.096 3°0.158 9.152471 3.274316 29.952777  
2002-04-11 07:33:59 51°20.102 3°0.183 9.229973 3.274316 29.952777  
2002-04-11 07:34:04 51°20.107 3°0.208 9.153137 3.274617 29.953768  
2002-04-11 07:34:09 51°20.113 3°0.233 9.152994 3.274717 29.956151  
2002-04-11 07:34:14 51°20.118 3°0.258 9.152994 3.274717 29.956151  
2002-04-11 07:34:19 51°20.125 3°0.283 9.153327 3.274817 29.957166  
2002-04-11 07:34:24 51°20.131 3°0.308 9.153564 3.275017 29.957826  
2002-04-11 07:34:29 51°20.135 3°0.333 9.153754 3.274917 29.956812  
2002-04-11 07:34:33 51°20.14 3°0.352 9.154135 3.275117 29.960209  
2002-04-11 07:34:39 51°20.147 3°0.383 9.154325 3.275217 29.957803  
2002-04-11 07:34:43 51°20.152 3°0.402 9.154325 3.275217 29.957803  
2002-04-11 07:34:49 51°20.158 3°0.432 9.154467 3.274817 29.953745  
2002-04-11 07:34:54 51°20.165 3°0.457 9.154562 3.274917 29.956128  
2002-04-11 07:34:59 51°20.17 3°0.482 9.193893 3.274717 29.954099  
2002-04-11 07:35:03 51°20.175 3°0.501 9.155085 3.274717 29.954783  
2002-04-11 07:35:09 51°20.181 3°0.531 9.154895 3.275017 29.957142  
2002-04-11 07:35:13 51°20.186 3°0.551 9.154895 3.275017 29.957142  
2002-04-11 07:35:19 51°20.193 3°0.58 9.155085 3.274617 29.951032  
2002-04-11 07:35:24 51°20.198 3°0.605 9.155227 3.274416 29.950371  
2002-04-11 07:35:29 51°20.204 3°0.63 9.154325 3.274617 29.950349  
2002-04-11 07:35:33 51°20.208 3°0.65 9.155322 3.274316 29.946622  
2002-04-11 07:35:39 51°20.215 3°0.679 9.155037 3.274316 29.947305  
2002-04-11 07:35:42 51°20.218 3°0.694 9.155037 3.274316 29.947305  
2002-04-11 07:35:49 51°20.226 3°0.728 9.154895 3.274116 29.946644  
2002-04-11 07:35:54 51°20.232 3°0.753 9.155465 3.274116 29.94596  
2002-04-11 07:35:59 51°20.237 3°0.778 9.15575 3.273815 29.944968  
2002-04-11 07:36:04 51°20.242 3°0.803 9.156463 3.273915 29.941197  
2002-04-11 07:36:09 51°20.248 3°0.828 9.156368 3.273915 29.941881  
2002-04-11 07:36:14 51°20.252 3°0.853 9.156368 3.273915 29.941881  
2002-04-11 07:36:18 51°20.258 3°0.872 9.15651 3.273815 29.939499  
2002-04-11 07:36:24 51°20.264 3°0.902 9.155893 3.273615 29.938154  
2002-04-11 07:36:29 51°20.271 3°0.926 9.156083 3.274316 29.946622  
2002-04-11 07:36:34 51°20.276 3°0.951 9.15537 3.273415 29.934075  
2002-04-11 07:36:39 51°20.283 3°0.976 9.15594 3.273415 29.937492  
2002-04-11 07:36:44 51°20.289 3°1 9.15594 3.273415 29.937492  
2002-04-11 07:36:49 51°20.295 3°1.024 9.155608 3.273315 29.934428  
2002-04-11 07:36:53 51°20.301 3°1.044 9.154467 3.273214 29.934097  
2002-04-11 07:36:58 51°20.307 3°1.069 9.153469 3.273114 29.932399  
2002-04-11 07:37:04 51°20.315 3°1.097 9.153184 3.273114 29.93445  
2002-04-11 07:37:09 51°20.321 3°1.122 9.152044 3.273014 29.930702  
2002-04-11 07:37:13 51°20.326 3°1.141 9.152044 3.273014 29.930702  
2002-04-11 07:37:19 51°20.334 3°1.17 9.151759 3.272613 29.928011  
2002-04-11 07:37:24 51°20.342 3°1.195 9.151331 3.272513 29.928364  
2002-04-11 07:37:29 51°20.347 3°1.22 9.150286 3.272113 29.925673  
2002-04-11 07:37:34 51°20.354 3°1.244 9.189192 3.272413 29.924616  
2002-04-11 07:37:39 51°20.36 3°1.269 9.150333 3.271512 29.918904  
2002-04-11 07:37:43 51°20.365 3°1.288 9.150333 3.271512 29.918904  
2002-04-11 07:37:49 51°20.372 3°1.318 9.150286 3.271412 29.914475  
2002-04-11 07:37:54 51°20.379 3°1.342 9.187957 3.271211 29.915862  
2002-04-11 07:37:59 51°20.385 3°1.367 9.148005 3.270711 29.91079  
2002-04-11 07:38:04 51°20.392 3°1.391 9.148052 3.27041 29.905016  
2002-04-11 07:38:09 51°20.398 3°1.416 9.186627 3.269809 29.898249  
2002-04-11 07:38:14 51°20.405 3°1.44 9.186627 3.269809 29.898249  
2002-04-11 07:38:19 51°20.411 3°1.465 9.148242 3.269008 29.893549  
2002-04-11 07:38:24 51°20.417 3°1.489 9.226745 3.268808 29.891521  
2002-04-11 07:38:29 51°20.423 3°1.514 9.148765 3.268207 29.886801  
2002-04-11 07:38:34 51°20.429 3°1.538 9.148052 3.267806 29.882745  
2002-04-11 07:38:39 51°20.435 3°1.562 9.147767 3.267005 29.874632  
2002-04-11 07:38:43 51°20.441 3°1.582 9.147767 3.267005 29.874632  
2002-04-11 07:38:49 51°20.448 3°1.611 9.224989 3.266705 29.872272  
2002-04-11 07:38:53 51°20.453 3°1.63 9.146437 3.266003 29.861082  
2002-04-11 07:38:59 51°20.46 3°1.659 9.144773 3.265603 29.859753  
2002-04-11 07:39:04 51°20.467 3°1.683 9.144298 3.264902 29.855382  
2002-04-11 07:39:09 51°20.473 3°1.708 9.1433 3.265202 29.855697  
2002-04-11 07:39:14 51°20.48 3°1.732 9.1433 3.265202 29.855697  
2002-04-11 07:39:19 51°20.486 3°1.756 9.14216 3.264001 29.846937  
2002-04-11 07:39:24 51°20.493 3°1.78 9.181925 3.2637 29.841169  
2002-04-11 07:39:29 51°20.499 3°1.804 9.182495 3.2634 29.838127  
2002-04-11 07:39:34 51°20.507 3°1.827 9.222521 3.263099 29.838492  
2002-04-11 07:39:39 51°20.513 3°1.851 9.184632 3.261397 29.823979  
2002-04-11 07:39:44 51°20.521 3°1.875 9.184632 3.261397 29.823979  
2002-04-11 07:39:49 51°20.527 3°1.899 9.147054 3.261997 29.823933  
2002-04-11 07:39:54 51°20.533 3°1.923 9.18487 3.261797 29.823948  
2002-04-11 07:39:59 51°20.539 3°1.948 9.147054 3.261397 29.821255  
2002-04-11 07:40:03 51°20.545 3°1.967 9.146056 3.261296 29.820922  
2002-04-11 07:40:09 51°20.552 3°1.995 9.146484 3.261196 29.815142  
2002-04-11 07:40:14 51°20.559 3°2.02 9.146484 3.261196 29.815142  
2002-04-11 07:40:18 51°20.564 3°2.04 9.146817 3.260495 29.810768  
2002-04-11 07:40:23 51°20.572 3°2.064 9.185772 3.260696 29.811434  
2002-04-11 07:40:28 51°20.578 3°2.089 9.1862 3.260696 29.811434  
2002-04-11 07:40:34 51°20.586 3°2.118 9.147957 3.260896 29.814142  
2002-04-11 07:40:39 51°20.592 3°2.142 9.186675 3.259794 29.805032  
2002-04-11 07:40:44 51°20.599 3°2.166 9.186675 3.259794 29.805032  
2002-04-11 07:40:49 51°20.606 3°2.19 9.187672 3.260595 29.811101  
2002-04-11 07:40:53 51°20.611 3°2.21 9.187482 3.261296 29.818879  
2002-04-11 07:40:58 51°20.617 3°2.234 9.148337 3.260996 29.815837  
2002-04-11 07:41:03 51°20.624 3°2.258 9.14848 3.260796 29.812448  
2002-04-11 07:41:09 51°20.632 3°2.288 9.148765 3.261296 29.818879  
2002-04-11 07:41:14 51°20.638 3°2.312 9.148765 3.261296 29.818879  
2002-04-11 07:41:19 51°20.645 3°2.336 9.186532 3.261397 29.821255  
2002-04-11 07:41:24 51°20.651 3°2.361 9.148718 3.261497 29.818864  
2002-04-11 07:41:29 51°20.658 3°2.385 9.186675 3.262999 29.835434  
2002-04-11 07:41:34 51°20.664 3°2.41 9.147435 3.262098 29.824266  
2002-04-11 07:41:39 51°20.671 3°2.434 9.146769 3.262098 29.826309  
2002-04-11 07:41:43 51°20.676 3°2.454 9.146769 3.262098 29.826309  
2002-04-11 07:41:49 51°20.684 3°2.482 9.147149 3.262398 29.82867  
2002-04-11 07:41:54 51°20.69 3°2.506 9.225464 3.262298 29.829018  
2002-04-11 07:41:59 51°20.697 3°2.531 9.185107 3.262398 29.829351  
2002-04-11 07:42:04 51°20.703 3°2.555 9.147102 3.264501 29.847918  
2002-04-11 07:42:09 51°20.71 3°2.579 9.147054 3.262699 29.832392  
2002-04-11 07:42:14 51°20.716 3°2.604 9.147054 3.262699 29.832392  
2002-04-11 07:42:19 51°20.723 3°2.627 9.14791 3.2639 29.843879  
2002-04-11 07:42:24 51°20.73 3°2.651 9.148005 3.263199 29.838825  
2002-04-11 07:42:29 51°20.736 3°2.676 9.148955 3.263299 29.839158  
2002-04-11 07:42:33 51°20.742 3°2.695 9.148718 3.263299 29.839839  
2002-04-11 07:42:39 51°20.75 3°2.724 9.148337 3.2636 29.8422  
2002-04-11 07:42:44 51°20.757 3°2.748 9.148337 3.2636 29.8422  
2002-04-11 07:42:49 51°20.763 3°2.773 9.188052 3.264101 29.845906  
2002-04-11 07:42:54 51°20.77 3°2.798 9.148908 3.264301 29.849979  
2002-04-11 07:42:58 51°20.775 3°2.817 9.189239 3.264601 29.853021  
2002-04-11 07:43:04 51°20.783 3°2.846 9.150428 3.265002 29.852306  
2002-04-11 07:43:09 51°20.79 3°2.87 9.151331 3.264902 29.8547  
2002-04-11 07:43:13 51°20.795 3°2.889 9.151331 3.264902 29.8547  
2002-04-11 07:43:19 51°20.803 3°2.918 9.151854 3.265202 29.859788  
2002-04-11 07:43:24 51°20.809 3°2.943 9.152281 3.265503 29.858739  
2002-04-11 07:43:29 51°20.816 3°2.967 9.152614 3.265703 29.861449  
2002-04-11 07:43:34 51°20.822 3°2.991 9.152899 3.266204 29.866519  
2002-04-11 07:43:39 51°20.829 3°3.015 9.153422 3.266104 29.867551  
2002-04-11 07:43:43 51°20.834 3°3.035 9.153422 3.266104 29.867551  
2002-04-11 07:43:49 51°20.842 3°3.064 9.15461 3.266504 29.868879  
2002-04-11 07:43:54 51°20.849 3°3.088 9.154752 3.266805 29.87465  
2002-04-11 07:43:59 51°20.855 3°3.112 9.155465 3.267205 29.879389  
2002-04-11 07:44:04 51°20.862 3°3.136 9.155798 3.267506 29.881749  
2002-04-11 07:44:08 51°20.867 3°3.156 9.156463 3.267806 29.886839  
2002-04-11 07:44:13 51°20.873 3°3.18 9.156463 3.267806 29.886839  
2002-04-11 07:44:19 51°20.881 3°3.209 9.19508 3.268307 29.889863  
2002-04-11 07:44:24 51°20.887 3°3.233 9.15594 3.268908 29.894583  
2002-04-11 07:44:29 51°20.894 3°3.256 9.194938 3.269208 29.898991  
2002-04-11 07:44:33 51°20.9 3°3.276 9.15708 3.269409 29.898971  
2002-04-11 07:44:39 51°20.908 3°3.305 9.15689 3.269509 29.899303  
2002-04-11 07:44:43 51°20.913 3°3.324 9.15689 3.269509 29.899303  
2002-04-11 07:44:49 51°20.921 3°3.353 9.15651 3.27041 29.906382  
2002-04-11 07:44:54 51°20.928 3°3.377 9.156368 3.27051 29.909445  
2002-04-11 07:44:59 51°20.934 3°3.4 9.156083 3.27051 29.908762  
2002-04-11 07:45:04 51°20.941 3°3.425 9.19508 3.270711 29.906011  
2002-04-11 07:45:09 51°20.948 3°3.449 9.156178 3.271211 29.915862  
2002-04-11 07:45:14 51°20.954 3°3.473 9.156178 3.271211 29.915862  
2002-04-11 07:45:19 51°20.96 3°3.497 9.15594 3.271412 29.91789  
2002-04-11 07:45:24 51°20.967 3°3.522 9.155655 3.271512 29.920271  
2002-04-11 07:45:29 51°20.973 3°3.546 9.156178 3.271712 29.920933  
2002-04-11 07:45:34 51°20.981 3°3.57 9.156178 3.272313 29.927702  
2002-04-11 07:45:39 51°20.986 3°3.595 9.1947 3.272013 29.923976  
2002-04-11 07:45:44 51°20.994 3°3.618 9.1947 3.272013 29.923976  
2002-04-11 07:45:49 51°21 3°3.643 9.15632 3.271912 29.922278  
2002-04-11 07:45:54 51°21.007 3°3.667 9.15632 3.271312 29.914144  
2002-04-11 07:45:59 51°21.014 3°3.691 9.15575 3.271812 29.918531  
2002-04-11 07:46:04 51°21.021 3°3.715 9.15575 3.271912 29.922278  
2002-04-11 07:46:09 51°21.027 3°3.74 9.156225 3.272013 29.922609  
2002-04-11 07:46:14 51°21.034 3°3.764 9.156225 3.272013 29.922609  
2002-04-11 07:46:19 51°21.041 3°3.788 9.194795 3.271612 29.919919  
2002-04-11 07:46:24 51°21.048 3°3.812 9.15518 3.271412 29.915158  
2002-04-11 07:46:29 51°21.054 3°3.837 9.155085 3.270811 29.90839  
2002-04-11 07:46:33 51°21.06 3°3.856 9.154135 3.27061 29.907727  
2002-04-11 07:46:39 51°21.068 3°3.886 9.154135 3.27001 29.901643  
2002-04-11 07:46:44 51°21.075 3°3.909 9.154135 3.27001 29.901643  
2002-04-11 07:46:49 51°21.081 3°3.934 9.154467 3.269909 29.901994  
2002-04-11 07:46:54 51°21.088 3°3.958 9.153469 3.269108 29.895246  
2002-04-11 07:46:59 51°21.095 3°3.983 9.15404 3.269509 29.894525  
2002-04-11 07:47:04 51°21.101 3°4.007 9.153992 3.268908 29.889805  
2002-04-11 07:47:09 51°21.108 3°4.03 9.154942 3.269008 29.889455  
2002-04-11 07:47:14 51°21.115 3°4.055 9.154942 3.269008 29.889455  
2002-04-11 07:47:19 51°21.122 3°4.079 9.154752 3.268908 29.889123  
2002-04-11 07:47:24 51°21.129 3°4.103 9.193798 3.268607 29.886081  
2002-04-11 07:47:29 51°21.135 3°4.127 9.155085 3.268407 29.884735  
2002-04-11 07:47:34 51°21.143 3°4.151 9.154657 3.268307 29.88645  
2002-04-11 07:47:39 51°21.15 3°4.176 9.155512 3.266705 29.870907  
2002-04-11 07:47:44 51°21.157 3°4.199 9.155512 3.266705 29.870907  
2002-04-11 07:47:49 51°21.163 3°4.223 9.156463 3.266805 29.869193  
2002-04-11 07:47:53 51°21.169 3°4.242 9.157366 3.266705 29.870225  
2002-04-11 07:47:59 51°21.177 3°4.272 9.157888 3.266003 29.861082  
2002-04-11 07:48:04 51°21.184 3°4.296 9.158173 3.265302 29.853984  
2002-04-11 07:48:09 51°21.191 3°4.32 9.157746 3.265102 29.854683  
2002-04-11 07:48:14 51°21.197 3°4.345 9.157746 3.265102 29.854683  
2002-04-11 07:48:19 51°21.204 3°4.37 9.158506 3.264601 29.849613  
2002-04-11 07:48:24 51°21.21 3°4.394 9.158458 3.264401 29.846904  
2002-04-11 07:48:29 51°21.217 3°4.419 9.158791 3.264 29.84353  
2002-04-11 07:48:34 51°21.224 3°4.443 9.159219 3.2638 29.839458  
2002-04-11 07:48:39 51°21.231 3°4.467 9.160596 3.2635 29.83846  
2002-04-11 07:48:44 51°21.237 3°4.492 9.160596 3.2635 29.83846  
2002-04-11 07:48:49 51°21.244 3°4.516 9.161166 3.263199 29.833375  
2002-04-11 07:48:54 51°21.251 3°4.541 9.161452 3.262598 29.826611  
2002-04-11 07:48:58 51°21.256 3°4.56 9.161071 3.262598 29.827292  
2002-04-11 07:49:03 51°21.262 3°4.585 9.162354 3.262298 29.825613  
2002-04-11 07:49:09 51°21.27 3°4.614 9.162449 3.261897 29.822238  
2002-04-11 07:49:14 51°21.277 3°4.638 9.162449 3.261897 29.822238  
2002-04-11 07:49:19 51°21.284 3°4.662 9.162592 3.261797 29.81782  
2002-04-11 07:49:24 51°21.29 3°4.687 9.162639 3.261897 29.820196  
2002-04-11 07:49:29 51°21.297 3°4.711 9.162497 3.261797 29.818501  
2002-04-11 07:49:34 51°21.304 3°4.736 9.163067 3.262999 29.831347  
2002-04-11 07:49:39 51°21.31 3°4.76 9.164635 3.261497 29.814099  
2002-04-11 07:49:44 51°21.317 3°4.784 9.164635 3.261497 29.814099  
2002-04-11 07:49:49 51°21.324 3°4.809 9.165727 3.261497 29.813418  
2002-04-11 07:49:53 51°21.33 3°4.828 9.244019 3.261296 29.813432  
2002-04-11 07:49:59 51°21.338 3°4.857 9.205669 3.260595 29.806337  
2002-04-11 07:50:04 51°21.345 3°4.881 9.16758 3.261196 29.811738  
2002-04-11 07:50:09 51°21.352 3°4.905 9.1672 3.261196 29.810377  
2002-04-11 07:50:13 51°21.358 3°4.925 9.1672 3.261196 29.810377  
2002-04-11 07:50:18 51°21.364 3°4.949 9.167865 3.261196 29.810377  
2002-04-11 07:50:23 51°21.37 3°4.974 9.169195 3.261196 29.809016  
2002-04-11 07:50:29 51°21.379 3°5.004 9.168768 3.261096 29.809363  
2002-04-11 07:50:34 51°21.385 3°5.028 9.169385 3.261296 29.81003  
2002-04-11 07:50:39 51°21.392 3°5.052 9.169528 3.260996 29.806989  
2002-04-11 07:50:43 51°21.397 3°5.072 9.169528 3.260996 29.806989  
2002-04-11 07:50:49 51°21.405 3°5.101 9.169908 3.260996 29.806989  
2002-04-11 07:50:53 51°21.41 3°5.121 9.16967 3.261196 29.808336  
2002-04-11 07:50:59 51°21.418 3°5.15 9.169908 3.261096 29.808002  
2002-04-11 07:51:04 51°21.425 3°5.175 9.16948 3.261096 29.806642  
2002-04-11 07:51:09 51°21.432 3°5.199 9.170335 3.260996 29.805628  
2002-04-11 07:51:14 51°21.439 3°5.224 9.170335 3.260996 29.805628  
2002-04-11 07:51:19 51°21.446 3°5.248 9.208612 3.261096 29.805961  
2002-04-11 07:51:23 51°21.451 3°5.268 9.170525 3.261096 29.804601  
2002-04-11 07:51:29 51°21.46 3°5.297 9.170668 3.261196 29.804934  
2002-04-11 07:51:33 51°21.465 3°5.316 9.17081 3.261196 29.805614  
2002-04-11 07:51:39 51°21.473 3°5.345 9.170953 3.261096 29.805281  
2002-04-11 07:51:43 51°21.478 3°5.365 9.170953 3.261096 29.805281  
2002-04-11 07:51:49 51°21.487 3°5.394 9.170953 3.261096 29.80188  
2002-04-11 07:51:54 51°21.493 3°5.419 9.17062 3.261296 29.803226  
2002-04-11 07:51:59 51°21.501 3°5.443 9.169955 3.261296 29.803907  
2002-04-11 07:52:04 51°21.507 3°5.468 9.247341 3.261296 29.806628  
2002-04-11 07:52:09 51°21.514 3°5.491 9.206523 3.261396 29.80628  
2002-04-11 07:52:14 51°21.52 3°5.517 9.206523 3.261396 29.80628  
2002-04-11 07:52:19 51°21.527 3°5.541 9.167343 3.261497 29.806614  
2002-04-11 07:52:23 51°21.532 3°5.56 9.167153 3.261396 29.80628  
2002-04-11 07:52:29 51°21.542 3°5.589 9.166582 3.261396 29.806961  
2002-04-11 07:52:34 51°21.547 3°5.614 9.165205 3.261497 29.805933  
2002-04-11 07:52:39 51°21.555 3°5.638 9.203817 3.261497 29.805933  
2002-04-11 07:52:44 51°21.561 3°5.664 9.203817 3.261497 29.805933  
2002-04-11 07:52:49 51°21.568 3°5.688 9.166202 3.262198 29.813708  
2002-04-11 07:52:54 51°21.574 3°5.713 9.165917 3.261897 29.810667  
2002-04-11 07:52:59 51°21.582 3°5.737 9.16606 3.262899 29.822163  
2002-04-11 07:53:04 51°21.588 3°5.762 9.166202 3.261997 29.81032  
2002-04-11 07:53:09 51°21.595 3°5.786 9.166202 3.261897 29.810667  
2002-04-11 07:53:14 51°21.601 3°5.811 9.166202 3.261897 29.810667  
2002-04-11 07:53:19 51°21.609 3°5.835 9.206523 3.262198 29.810986  
2002-04-11 07:53:24 51°21.615 3°5.86 9.168625 3.262097 29.812694  
2002-04-11 07:53:29 51°21.622 3°5.885 9.168958 3.261997 29.81032  
2002-04-11 07:53:34 51°21.629 3°5.908 9.168625 3.262298 29.817443  
2002-04-11 07:53:39 51°21.635 3°5.933 9.206191 3.262198 29.815749  
2002-04-11 07:53:43 51°21.641 3°5.952 9.206191 3.262198 29.815749  
2002-04-11 07:53:49 51°21.649 3°5.982 9.166772 3.262498 29.81879  
2002-04-11 07:53:54 51°21.656 3°6.006 9.204387 3.262498 29.817428  
2002-04-11 07:53:59 51°21.663 3°6.03 9.165775 3.262799 29.819788  
2002-04-11 07:54:04 51°21.669 3°6.055 9.16473 3.262698 29.820817  
2002-04-11 07:54:09 51°21.677 3°6.079 9.165585 3.262698 29.822178  
2002-04-11 07:54:14 51°21.683 3°6.104 9.165585 3.262698 29.822178  
2002-04-11 07:54:19 51°21.69 3°6.128 9.16606 3.262899 29.822163  
2002-04-11 07:54:24 51°21.696 3°6.153 9.16606 3.263099 29.825552  
2002-04-11 07:54:29 51°21.703 3°6.177 9.166345 3.262498 29.815387  
2002-04-11 07:54:34 51°21.709 3°6.202 9.204909 3.263299 29.822814  
2002-04-11 07:54:39 51°21.717 3°6.225 9.165917 3.263199 29.823162  
2002-04-11 07:54:44 51°21.723 3°6.251 9.165917 3.263199 29.823162  
2002-04-11 07:54:49 51°21.73 3°6.275 9.204956 3.2636 29.829258  
2002-04-11 07:54:53 51°21.735 3°6.295 9.16435 3.2637 29.830271  
2002-04-11 07:54:59 51°21.744 3°6.324 9.163922 3.2637 29.832995  
2002-04-11 07:55:04 51°21.75 3°6.349 9.163494 3.264201 29.833296  
2002-04-11 07:55:09 51°21.757 3°6.373 9.161784 3.264902 29.844478  
2002-04-11 07:55:14 51°21.764 3°6.398 9.161784 3.264902 29.844478  
2002-04-11 07:55:19 51°21.771 3°6.423 9.160786 3.264701 29.837002  
2002-04-11 07:55:24 51°21.778 3°6.447 9.159599 3.264501 29.83838  
2002-04-11 07:55:29 51°21.785 3°6.471 9.197597 3.264201 29.83602  
2002-04-11 07:55:33 51°21.792 3°6.491 9.156938 3.264902 29.845159  
2002-04-11 07:55:39 51°21.799 3°6.52 9.15575 3.265202 29.847519  
2002-04-11 07:55:44 51°21.806 3°6.544 9.15575 3.265202 29.847519  
2002-04-11 07:55:49 51°21.813 3°6.569 9.15404 3.265102 29.845143  
2002-04-11 07:55:54 51°21.821 3°6.593 9.153564 3.265603 29.854981  
2002-04-11 07:55:59 51°21.828 3°6.617 9.151996 3.265803 29.854964  
2002-04-11 07:56:03 51°21.835 3°6.636 9.150903 3.266104 29.858687  
2002-04-11 07:56:09 51°21.843 3°6.665 9.149668 3.266504 29.863424  
2002-04-11 07:56:14 51°21.85 3°6.69 9.149668 3.266504 29.863424  
2002-04-11 07:56:19 51°21.857 3°6.714 9.187909 3.267005 29.866448  
2002-04-11 07:56:24 51°21.865 3°6.738 9.147625 3.266805 29.865784  
2002-04-11 07:56:28 51°21.87 3°6.759 9.147767 3.267706 29.871499  
2002-04-11 07:56:33 51°21.877 3°6.782 9.147577 3.267806 29.877287  
2002-04-11 07:56:39 51°21.885 3°6.812 9.186627 3.268107 29.8776  
2002-04-11 07:56:44 51°21.893 3°6.836 9.186627 3.268107 29.8776  
2002-04-11 07:56:49 51°21.899 3°6.861 9.146959 3.269008 29.889455  
2002-04-11 07:56:53 51°21.905 3°6.88 9.145866 3.267706 29.876273  
2002-04-11 07:56:59 51°21.913 3°6.91 9.146056 3.269609 29.896904  
2002-04-11 07:57:04 51°21.921 3°6.934 9.145771 3.269709 29.900648  
2002-04-11 07:57:09 51°21.927 3°6.959 9.145866 3.269509 29.895207  
2002-04-11 07:57:13 51°21.934 3°6.978 9.145866 3.269509 29.895207  
2002-04-11 07:57:19 51°21.942 3°7.008 9.145296 3.27031 29.906734  
2002-04-11 07:57:24 51°21.95 3°7.032 9.143918 3.271011 29.912467  
2002-04-11 07:57:29 51°21.957 3°7.057 9.143728 3.270911 29.911453  
2002-04-11 07:57:34 51°21.964 3°7.081 9.142777 3.270711 29.911473  
2002-04-11 07:57:39 51°21.971 3°7.106 9.141922 3.271111 29.91553  
2002-04-11 07:57:44 51°21.978 3°7.131 9.141922 3.271111 29.91553  
2002-04-11 07:57:49 51°21.985 3°7.156 9.140544 3.271211 29.916545  
2002-04-11 07:57:54 51°21.993 3°7.18 9.139498 3.271011 29.915199  
2002-04-11 07:57:59 51°21.999 3°7.206 9.13793 3.271312 29.919608  
2002-04-11 07:58:03 51°22.005 3°7.226 9.136076 3.271111 29.920313  
2002-04-11 07:58:09 51°22.014 3°7.256 9.136646 3.271712 29.923666  
2002-04-11 07:58:14 51°22.02 3°7.281 9.136646 3.271712 29.923666  
2002-04-11 07:58:18 51°22.026 3°7.301 9.136171 3.271312 29.920292  
2002-04-11 07:58:24 51°22.034 3°7.331 9.137074 3.271211 29.924061  
2002-04-11 07:58:29 51°22.042 3°7.356 9.138215 3.271412 29.92609